Home   Weather   Košice   Past weeks

Flag for Slovakia Past Weather in Košice, Slovakia — Yesterday and Last 2 Weeks

Now
54 °F

Sunny.


Feels Like: 54 °F
Forecast: 52 / 72 °F
Wind: 1 mph from North

Location: Kosice - Barca

Current Time: Oct 1, 2016 at 9:11:52 AM

Latest Report: Oct 1, 2016 at 8:30 AM


Visibility: 10 mi

Pressure: 30.04 "Hg

Humidity: 88%

Dew Point: 50 °F

Location of KošiceLocation

Past Weather in Košice — Graph

°F

Košice Temperature Yesterday

Maximum temperature yesterday: 75 °F (at 2:30 PM)
Minimum temperature yesterday: 46 °F (at 6:00 AM)
Average temperature yesterday: 60 °F

High & Low Weather Summary for the Past Weeks

 TemperatureHumidityPressure
High81 °F (Sep 16, 3:30 PM)100% (Sep 25, 4:30 AM)30.36 "Hg (Sep 25, 4:30 AM)
Low39 °F (Sep 22, 4:00 AM)35% (Sep 23, 2:00 PM)29.77 "Hg (Sep 19, 6:30 AM)
Average58 °F71%30.09 "Hg
* Reported Sep 16 8:00 AM — Oct 1 8:00 AM, Košice, Weather by CustomWeather, © 2016

Note: Actual official high and low records may vary slightly from our data, if they occured in-between our weather recording intervals... More about our weather records

Advertising

Košice Weather History for the Previous 24 Hours

Scroll right to see more
 ConditionsComfort  
Time TempWeatherWind HumidityBarometerVisibility
8:00 AM
Sat, Oct 1
54 °FSunny.1 mph88%30.04 "Hg10 mi
7:30 AM52 °FSunny.1 mph88%30.01 "Hg10 mi
7:00 AM50 °FFog.2 mph94%30.01 "HgN/A
6:30 AM50 °FFog.3 mph94%30.01 "HgN/A
6:00 AM50 °FClear.5 mph94%30.01 "Hg10 mi
5:30 AM52 °FClear.1 mph88%30.01 "Hg10 mi
5:00 AM50 °FClear.2 mph94%30.01 "Hg10 mi
4:30 AM52 °FClear.2 mph88%30.01 "Hg10 mi
4:00 AM52 °FClear.2 mph94%30.01 "Hg10 mi
3:30 AM52 °FClear.No wind88%30.01 "Hg10 mi
3:00 AM54 °FClear.3 mph88%30.04 "Hg10 mi
2:30 AM55 °FClear.2 mph82%30.04 "Hg10 mi
2:00 AM55 °FClear.6 mph82%30.04 "Hg10 mi
1:30 AM54 °FClear.3 mph88%30.04 "Hg10 mi
1:00 AM55 °FClear.1 mph77%30.04 "Hg10 mi
12:30 AM54 °FClear.3 mph82%30.04 "Hg10 mi
12:00 AM52 °FClear.1 mph88%30.04 "Hg10 mi
11:30 PM
Fri, Sep 30
55 °FClear.3 mph82%30.07 "Hg10 mi
11:00 PM57 °FClear.2 mph77%30.07 "Hg10 mi
10:30 PM57 °FClear.5 mph77%30.07 "Hg10 mi
10:00 PM57 °FPassing clouds.3 mph77%30.04 "HgN/A
9:30 PM61 °FClear.7 mph68%30.04 "Hg10 mi
9:00 PM61 °FClear.7 mph68%30.04 "Hg10 mi
8:30 PM61 °FClear.5 mph68%30.04 "Hg10 mi
8:00 PM61 °FClear.5 mph63%30.04 "Hg10 mi
7:30 PM61 °FClear.5 mph63%30.04 "Hg10 mi
7:00 PM63 °FClear.6 mph59%30.04 "Hg10 mi
6:30 PM66 °FPassing clouds.3 mph56%30.04 "HgN/A
6:00 PM70 °FSunny.8 mph50%30.04 "Hg10 mi
5:30 PM72 °FSunny.13 mph47%30.04 "Hg10 mi
5:00 PM73 °FSunny.14 mph44%30.04 "Hg10 mi
4:30 PM75 °FSunny.14 mph41%30.04 "Hg10 mi
4:00 PM75 °FSunny.14 mph41%30.04 "Hg10 mi
3:30 PM75 °FSunny.15 mph41%30.04 "Hg10 mi
3:00 PM75 °FSunny.14 mph41%30.07 "Hg10 mi
2:30 PM75 °FSunny.13 mph41%30.07 "Hg10 mi
2:00 PM73 °FPassing clouds.13 mph44%30.07 "HgN/A
1:30 PM73 °FSunny.13 mph47%30.09 "Hg10 mi
1:00 PM73 °FPassing clouds.12 mph44%30.09 "HgN/A
12:30 PM72 °FPassing clouds.10 mph50%30.09 "HgN/A
12:00 PM70 °FPassing clouds.8 mph53%30.09 "HgN/A
11:30 AM68 °FPassing clouds.6 mph60%30.12 "HgN/A
11:00 AM64 °FSunny.2 mph68%30.12 "Hg10 mi
10:30 AM63 °FPassing clouds.5 mph68%30.12 "HgN/A
10:00 AM61 °FPassing clouds.6 mph72%30.12 "HgN/A
9:30 AM57 °FPassing clouds.3 mph82%30.12 "HgN/A
9:00 AM57 °FSunny.2 mph82%30.12 "Hg10 mi
Weather by CustomWeather, © 2016

See weather overviewHow to use our weather pages